This is the latest recevied weather packets stored in our database for station/object K0CVS. If no packets are shown the sender has not sent any weather packets the latest 10 day(s).
| Time | Temp. | Humidity | Pressure | Rain* | Wind** | Luminosity | Snow |
|---|---|---|---|---|---|---|---|
| 1778088069 | 12.78° C | 38% | 1019.5 hPa | 0 mm | - | 236 W/m² | - |
| 1778087767 | 12.78° C | 38% | 1019.4 hPa | 0 mm | - | 292 W/m² | - |
| 1778087464 | 13.33° C | 38% | 1019.6 hPa | 1.78 mm | - | 242 W/m² | - |
| 1778087161 | 13.89° C | 35% | 1019.6 hPa | 1.78 mm | - | 358 W/m² | - |
| 1778086859 | 13.33° C | 36% | 1019.6 hPa | 0 mm | - | 410 W/m² | - |
| 1778086558 | 13.33° C | 37% | 1019.6 hPa | 0 mm | - | 294 W/m² | - |
| 1778086253 | 13.33° C | 35% | 1019.7 hPa | 0 mm | - | 399 W/m² | - |
| 1778085951 | 13.33° C | 36% | 1019.7 hPa | 0 mm | - | 327 W/m² | - |
| 1778085648 | 13.33° C | 37% | 1019.5 hPa | 0 mm | - | 463 W/m² | - |
| 1778085343 | 13.33° C | 41% | 1019.6 hPa | 0 mm | - | 332 W/m² | - |
| 1778085039 | 12.78° C | 40% | 1019.5 hPa | 0 mm | - | 360 W/m² | - |
| 1778084736 | 12.78° C | 38% | 1019.6 hPa | 0 mm | - | 322 W/m² | - |
| 1778084433 | 12.78° C | 39% | 1019.6 hPa | 0 mm | - | 387 W/m² | - |
| 1778084131 | 12.78° C | 42% | 1019.5 hPa | 0 mm | - | 292 W/m² | - |
| 1778083827 | 12.78° C | 41% | 1019.5 hPa | 0 mm | - | 308 W/m² | - |
| 1778083525 | 12.78° C | 43% | 1019.4 hPa | 0 mm | - | 255 W/m² | - |
| 1778083222 | 12.78° C | 43% | 1019.3 hPa | 0 mm | - | 246 W/m² | - |
| 1778082920 | 12.78° C | 41% | 1019.2 hPa | 0 mm | - | 240 W/m² | - |
| 1778081812 | 12.22° C | 39% | 1019.2 hPa | 0 mm | - | 196 W/m² | - |
| 1778081509 | 12.78° C | 41% | 1019 hPa | 0 mm | - | 173 W/m² | - |
| 1778081205 | 12.22° C | 41% | 1019 hPa | 0 mm | - | 101 W/m² | - |
| 1778080903 | 12.22° C | 44% | 1018.9 hPa | 0 mm | - | 92 W/m² | - |
| 1778080602 | 12.22° C | 47% | 1018.9 hPa | 0 mm | - | 111 W/m² | - |
| 1778080298 | 11.67° C | 47% | 1018.9 hPa | 0 mm | - | 129 W/m² | - |
| 1778079995 | 11.67° C | 49% | 1019 hPa | 0 mm | - | 178 W/m² | - |
* Rain latest hour (hover to see other rain measurements)
** Current wind speed in m/s (hover to see current wind gust speed)